When you browse on this site, cookies collect data to enhance your experience and personalize the content and advertising you see.
Visit our Privacy Policy to learn more. By continuing to use the site, you agree to this use of cookies and data.
  • în România
  • Lista ţărilor
  • Pe 7 zile
  • Temperatura apei
  • Hartă satelitară
  • Meteo pe hartă
  • Widget-uri
  • user-avatar
    Intrare

    Meteo pe oră la Cincinnati

    Astăzi, 23 Februarie, Sâmbătă

    Timp Temperatura Precipitaţii Vânt Presiune Umiditate
    00:00 +3°C° 0 mm 3 m/s 751 mmHg 70%
    01:00 +3°C° 0 mm 3 m/s 750 mmHg 72%
    02:00 +3°C° 0 mm 3 m/s 749 mmHg 73%
    03:00 +3°C° 0 mm 3 m/s 749 mmHg 74%
    04:00 +3°C° 0 mm 3 m/s 748 mmHg 77%
    05:00 +3°C° 0 mm 3 m/s 748 mmHg 81%
    06:00 +4°C° 0 mm 2 m/s 747 mmHg 81%
    07:00 +5°C° 0 mm 2 m/s 747 mmHg 83%
    08:00 +4°C° 0 mm 3 m/s 746 mmHg 85%
    09:00 +5°C° 0 mm 3 m/s 746 mmHg 87%
    10:00 +8°C° 0 mm 3 m/s 745 mmHg 85%
    11:00 +9°C° 0 mm 2 m/s 745 mmHg 84%
    12:00 +12°C° 0 mm 2 m/s 744 mmHg 82%
    13:00 +11°C° 0 mm 3 m/s 744 mmHg 84%
    14:00 +12°C° 0 mm 3 m/s 743 mmHg 86%
    15:00 +12°C° 0 mm 4 m/s 742 mmHg 88%
    16:00 +12°C° 0.3 mm 4 m/s 741 mmHg 90%
    17:00 +12°C° 0.3 mm 4 m/s 740 mmHg 92%
    18:00 +13°C° 0.3 mm 4 m/s 739 mmHg 94%
    19:00 +13°C° 2.1 mm 5 m/s 738 mmHg 95%
    20:00 +13°C° 2.1 mm 5 m/s 737 mmHg 95%
    21:00 +13°C° 2.1 mm 5 m/s 736 mmHg 95%
    22:00 +14°C° 1.3 mm 5 m/s 735 mmHg 94%
    23:00 +14°C° 1.3 mm 6 m/s 734 mmHg 94%

    Mâine, 24 Februarie, Duminică

    Timp Temperatura Precipitaţii Vânt Presiune Umiditate
    00:00 +15°C° 1.3 mm 6 m/s 733 mmHg 93%
    01:00 +14°C° 0.8 mm 6 m/s 732 mmHg 87%
    02:00 +14°C° 0.8 mm 6 m/s 732 mmHg 82%
    03:00 +13°C° 0.8 mm 6 m/s 731 mmHg 76%
    04:00 +10°C° 0 mm 7 m/s 732 mmHg 75%
    05:00 +9°C° 0 mm 8 m/s 732 mmHg 74%
    06:00 +6°C° 0 mm 10 m/s 733 mmHg 72%
    07:00 +5°C° 0.1 mm 10 m/s 734 mmHg 71%
    08:00 +3°C° 0.1 mm 10 m/s 735 mmHg 69%
    09:00 +2°C° 0.1 mm 10 m/s 736 mmHg 68%
    10:00 +2°C° 0.1 mm 10 m/s 737 mmHg 67%
    11:00 +2°C° 0.1 mm 10 m/s 738 mmHg 65%
    12:00 +2°C° 0.1 mm 10 m/s 739 mmHg 64%
    13:00 +3°C° 0 mm 10 m/s 740 mmHg 58%
    14:00 +3°C° 0 mm 10 m/s 740 mmHg 51%
    15:00 +5°C° 0 mm 10 m/s 741 mmHg 45%
    16:00 +3°C° 0 mm 9 m/s 741 mmHg 46%
    17:00 +1°C° 0 mm 8 m/s 742 mmHg 47%
    18:00 0°C° 0 mm 8 m/s 743 mmHg 48%
    19:00 -1°C° 0 mm 8 m/s 744 mmHg 49%
    20:00 -2°C° 0 mm 8 m/s 745 mmHg 51%
    21:00 -4°C° 0 mm 8 m/s 746 mmHg 52%
    22:00 -5°C° 0 mm 8 m/s 747 mmHg 52%
    23:00 -6°C° 0 mm 7 m/s 748 mmHg 52%

    Poimâine, 25 Februarie, Luni

    Timp Temperatura Precipitaţii Vânt Presiune Umiditate
    00:00 -7°C° 0 mm 7 m/s 749 mmHg 53%
    01:00 -7°C° 0 mm 7 m/s 749 mmHg 51%
    02:00 -6°C° 0 mm 6 m/s 750 mmHg 49%
    03:00 -6°C° 0 mm 6 m/s 750 mmHg 47%
    04:00 -8°C° 0 mm 6 m/s 751 mmHg 46%
    05:00 -8°C° 0 mm 6 m/s 752 mmHg 45%
    06:00 -7°C° 0 mm 5 m/s 753 mmHg 44%
    07:00 -6°C° 0 mm 5 m/s 754 mmHg 39%
    08:00 -6°C° 0 mm 5 m/s 754 mmHg 35%
    09:00 -5°C° 0 mm 5 m/s 755 mmHg 31%
    10:00 -4°C° 0 mm 5 m/s 755 mmHg 27%
    11:00 -1°C° 0 mm 4 m/s 755 mmHg 24%
    12:00 0°C° 0 mm 4 m/s 755 mmHg 21%
    13:00 +1°C° 0 mm 4 m/s 755 mmHg 21%
    14:00 +1°C° 0 mm 4 m/s 755 mmHg 22%
    15:00 +3°C° 0 mm 4 m/s 754 mmHg 22%
    16:00 +2°C° 0 mm 3 m/s 755 mmHg 26%
    17:00 +1°C° 0 mm 2 m/s 755 mmHg 29%
    18:00 -1°C° 0 mm 2 m/s 755 mmHg 32%
    19:00 -1°C° 0 mm 2 m/s 755 mmHg 32%
    20:00 -2°C° 0 mm 2 m/s 756 mmHg 33%
    21:00 0°C° 0 mm 1 m/s 756 mmHg 33%
    22:00 -1°C° 0 mm 1 m/s 756 mmHg 33%
    23:00 -1°C° 0 mm 1 m/s 756 mmHg 33%

    26 Februarie, Marţi

    Timp Temperatura Precipitaţii Vânt Presiune Umiditate
    00:00 -1°C° 0 mm 1 m/s 756 mmHg 33%
    01:00 -2°C° 0 mm 1 m/s 756 mmHg 33%
    02:00 -2°C° 0 mm 1 m/s 756 mmHg 34%
    03:00 -2°C° 0 mm 1 m/s 756 mmHg 34%
    04:00 -4°C° 0 mm 2 m/s 756 mmHg 34%
    05:00 -4°C° 0 mm 2 m/s 757 mmHg 35%
    06:00 -4°C° 0 mm 2 m/s 757 mmHg 35%
    07:00 -3°C° 0 mm 2 m/s 757 mmHg 33%
    08:00 -2°C° 0 mm 2 m/s 757 mmHg 31%
    09:00 -1°C° 0 mm 2 m/s 758 mmHg 29%
    10:00 +1°C° 0 mm 2 m/s 757 mmHg 28%
    11:00 +3°C° 0 mm 2 m/s 757 mmHg 27%
    12:00 +5°C° 0 mm 2 m/s 756 mmHg 26%
    13:00 +5°C° 0 mm 2 m/s 755 mmHg 28%
    14:00 +6°C° 0 mm 2 m/s 755 mmHg 31%
    15:00 +7°C° 0 mm 2 m/s 754 mmHg 33%
    16:00 +5°C° 0 mm 2 m/s 753 mmHg 39%
    17:00 +4°C° 0 mm 2 m/s 753 mmHg 46%
    18:00 +2°C° 0 mm 2 m/s 753 mmHg 52%
    19:00 +2°C° 0 mm 2 m/s 753 mmHg 55%
    20:00 0°C° 0 mm 3 m/s 753 mmHg 57%
    21:00 0°C° 0 mm 3 m/s 752 mmHg 59%
    22:00 -1°C° 0 mm 3 m/s 752 mmHg 60%
    23:00 -1°C° 0 mm 3 m/s 751 mmHg 62%

    27 Februarie, Miercuri

    Timp Temperatura Precipitaţii Vânt Presiune Umiditate
    00:00 -1°C° 0 mm 2 m/s 751 mmHg 63%
    01:00 -1°C° 0 mm 2 m/s 750 mmHg 65%
    02:00 -2°C° 0 mm 2 m/s 750 mmHg 66%
    03:00 -2°C° 0 mm 2 m/s 749 mmHg 68%
    04:00 -1°C° 0 mm 2 m/s 749 mmHg 71%
    05:00 -1°C° 0 mm 2 m/s 749 mmHg 74%
    06:00 -1°C° 0 mm 2 m/s 748 mmHg 78%
    07:00 +2°C° 0 mm 2 m/s 748 mmHg 75%
    08:00 +4°C° 0 mm 3 m/s 748 mmHg 73%
    09:00 +7°C° 0 mm 3 m/s 748 mmHg 70%
    10:00 +9°C° 0 mm 3 m/s 747 mmHg 68%
    11:00 +11°C° 0 mm 4 m/s 746 mmHg 66%
    12:00 +13°C° 0 mm 4 m/s 746 mmHg 64%
    13:00 +11°C° 0.2 mm 4 m/s 745 mmHg 71%
    14:00 +10°C° 0.2 mm 4 m/s 745 mmHg 79%
    15:00 +8°C° 0.2 mm 4 m/s 744 mmHg 86%
    16:00 +9°C° 0.2 mm 3 m/s 744 mmHg 88%
    17:00 +8°C° 0.2 mm 3 m/s 745 mmHg 90%
    18:00 +7°C° 0.2 mm 3 m/s 745 mmHg 92%
    19:00 +5°C° 0 mm 3 m/s 745 mmHg 89%
    20:00 +4°C° 0 mm 4 m/s 746 mmHg 87%
    21:00 +3°C° 0 mm 4 m/s 746 mmHg 85%
    22:00 +1°C° 0 mm 4 m/s 747 mmHg 82%
    23:00 0°C° 0 mm 4 m/s 747 mmHg 79%

    28 Februarie, Joi

    Timp Temperatura Precipitaţii Vânt Presiune Umiditate
    00:00 -2°C° 0 mm 4 m/s 747 mmHg 77%
    01:00 -2°C° 0 mm 3 m/s 747 mmHg 76%
    02:00 -2°C° 0 mm 3 m/s 748 mmHg 75%
    03:00 -4°C° 0 mm 3 m/s 748 mmHg 74%
    04:00 -4°C° 0 mm 2 m/s 748 mmHg 73%
    05:00 -4°C° 0 mm 2 m/s 749 mmHg 73%
    06:00 -4°C° 0 mm 2 m/s 749 mmHg 72%
    07:00 -3°C° 0 mm 2 m/s 749 mmHg 66%
    08:00 -2°C° 0 mm 2 m/s 750 mmHg 61%
    09:00 -2°C° 0 mm 2 m/s 750 mmHg 55%
    10:00 +1°C° 0 mm 2 m/s 749 mmHg 49%
    11:00 +2°C° 0 mm 2 m/s 749 mmHg 44%
    12:00 +3°C° 0 mm 2 m/s 748 mmHg 38%
    13:00 +3°C° 0 mm 3 m/s 748 mmHg 37%
    14:00 +3°C° 0 mm 3 m/s 747 mmHg 37%
    15:00 +3°C° 0 mm 3 m/s 747 mmHg 36%
    16:00 +3°C° 0 mm 3 m/s 747 mmHg 40%
    17:00 +2°C° 0 mm 3 m/s 747 mmHg 43%
    18:00 +1°C° 0 mm 3 m/s 747 mmHg 47%
    19:00 +1°C° 0.1 mm 3 m/s 747 mmHg 55%
    20:00 0°C° 0.1 mm 3 m/s 747 mmHg 64%
    21:00 -1°C° 0.1 mm 3 m/s 747 mmHg 72%
    22:00 -1°C° 0 mm 3 m/s 747 mmHg 75%
    23:00 -2°C° 0 mm 2 m/s 747 mmHg 78%
    Arată mai mult